Regional Weather Roundup
Issued by NWS

Home | Current Version | Previous Version | Graphics & Text | Print | Product List | Glossary Off
Versions: 1 2 3 4 5 6 7 8 9 10 11 12 13 14 15 16 17 18 19 20 21 22 23 24 25 26 27 28 29 30 31 32 33 34 35 36 37 38 39 40 41 42 43 44 45 46 47 48 49 50

000
ASUS43 KMKX 121959
RWRWI

WISCONSIN REGIONAL WEATHER ROUNDUP
NATIONAL WEATHER SERVICE MILWAUKEE/SULLIVAN WI
200 PM CST TUE DEC 12 2017

NOTE: "FAIR" INDICATES FEW OR NO CLOUDS BELOW 12,000 FEET WITH NO
SIGNIFICANT WEATHER AND/OR OBSTRUCTIONS TO VISIBILITY.

WIZ001-002-006>008-014>016-023>028-122100-
NORTHWEST WISCONSIN

CITY           SKY/WX    TMP DP  RH WIND       PRES   REMARKS
SUPERIOR ARPT  CLOUDY    13   4  68 S6        30.03F WCI   4
ASHLAND        MOSUNNY   11   2  67 S7        30.02F WCI   0
HAYWARD        CLOUDY    11  -1  58 S3        29.98F
SIREN          CLOUDY    13   3  66 SW3       30.03F
CUMBERLAND     PTSUNNY   12   1  62 S3        30.01F
RICE LAKE      MOSUNNY   12   1  61 CALM      30.03F
CHETEK         CLOUDY    12  -1  56 CALM      30.03F
LADYSMITH      CLOUDY    13  -1  53 CALM      30.03F
EAU CLAIRE     NOT AVBL
MENOMONIE      CLOUDY    15   2  54 SW3       30.07F
NEW RICHMOND   FLURRIES  15   3  59 W3        30.05F
OSCEOLA        LGT SNOW  16   7  67 CALM      30.07F
$$

WIZ003>005-009-010-017-018-122100-
NORTH CENTRAL WISCONSIN

CITY           SKY/WX    TMP DP  RH WIND       PRES   REMARKS
MANITOWISH WTR CLOUDY     8   1  70 NW8       29.94F WCI  -4
ARBOR VITAE    PTSUNNY   11   3  70 NW7       29.94F WCI   1
WOODRUFF       PTSUNNY   11   3  70 NW7       29.94F WCI   1
RHINELANDER    MOSUNNY   12   2  64 W8        29.94S WCI   0
EAGLE RIVER    CLOUDY    11   2  65 NW10      29.92F WCI  -2
LAND O LAKES   CLOUDY    12   3  68 NW9       29.93S WCI  -1
PHILLIPS       CLOUDY     9  -2  60 NW5       29.98F WCI   1
TOMAHAWK       SUNNY     12  -1  56 W7        29.96F WCI   2
MEDFORD        MOSUNNY   12  -2  54 W10       29.98F WCI  -2
MERRILL        SUNNY     14  -1  50 W5        29.98F WCI   7
$$

WIZ029-030-035-036-043>047-122100-
CENTRAL WISCONSIN

CITY           SKY/WX    TMP DP  RH WIND       PRES   REMARKS
WAUSAU         SUNNY     13   1  59 W9        29.97F WCI   1
MOSINEE        MOSUNNY   12   1  62 W14       29.99F WCI  -3
MARSHFIELD     MOSUNNY   13   0  56 W13       29.99F WCI  -2
STEVENS POINT  SUNNY     12  -1  55 W7        30.01F WCI   1
WAUPACA        SUNNY     20   4  50 W9G16     30.02F WCI   9
WAUTOMA        NOT AVBL
WISC RAPIDS    PTSUNNY   14   1  56 NW14      30.04F WCI  -1
CAMP DOUGLAS   MOSUNNY   18   0  45 W13       30.05F WCI   4
$$

WIZ011>013-019>022-031-037>040-048>050-122100-
NORTHEAST WISCONSIN

CITY           SKY/WX    TMP DP  RH WIND       PRES   REMARKS
ANTIGO         PTSUNNY   13   2  63 NW10      29.94F WCI   0
SHAWANO        CLOUDY    19   4  52 W8        29.99F WCI   9
OCONTO         CLOUDY    17   4  57 N7        29.99F WCI   8
STURGEON BAY   CLOUDY    16   5  62 N16       29.97F WCI   1
GREEN BAY      CLOUDY    19   4  51 W10       30.00F WCI   7
MANITOWOC      CLOUDY    18   8  65 NW14      29.99F WCI   4
APPLETON       PTSUNNY   18   1  49 NW12      29.98F WCI   5
CLINTONVILLE   NOT AVBL
OSHKOSH        PTSUNNY   19   6  57 W12       30.00F WCI   7
$$

WIZ032>034-041-042-053>061-122100-
SOUTHWEST WISCONSIN

CITY           SKY/WX    TMP DP  RH WIND       PRES   REMARKS
LA CROSSE      CLOUDY    20   2  45 NW6       30.09F WCI  12
SPARTA         CLOUDY    18   2  49 W7        30.08F WCI   8
VIROQUA        CLOUDY    16   4  58 W8        30.05F WCI   6
BOSCOBEL       CLOUDY    21   4  47 W8        30.10F WCI  11
PRAIRIE DU CHI CLOUDY    22   1  39 W8        30.12S WCI  12
PLATTEVILLE    CLOUDY    22   8  54 NW10      30.08F WCI  11
$$

WIZ056-057-062-063-064-067-068-122100-
SOUTH CENTRAL WISCONSIN

CITY           SKY/WX    TMP DP  RH WIND       PRES   REMARKS
REEDSBURG      CLOUDY    19   0  43 W10G16    30.05F WCI   8
BARABOO/DELLS  CLOUDY    21  -2  37 NW9       30.03F WCI  10
LONE ROCK      NOT AVBL
MINERAL POINT  CLOUDY    23   5  46 W10       30.04F WCI  12
MADISON        PTSUNNY   19   1  45 W10G20    30.03F WCI   7
MIDDLETON      CLOUDY    21   3  45 NW14      30.05S WCI   8
WATERTOWN      SUNNY     18   5  56 NW9       30.04S WCI   7
MONROE         MOSUNNY   23   0  36 W15       30.05S WCI  10
JANESVILLE     PTSUNNY   25   1  36 NW12G17   30.05S WCI  14
$$

WIZ051-052-058>065-066-070>072-122100-
SOUTHEAST WISCONSIN

CITY           SKY/WX    TMP DP  RH WIND       PRES   REMARKS
MILWAUKEE      MOSUNNY   21   6  52 NW13      30.01F WCI   9
WAUKESHA       MOSUNNY   18   5  57 W14       30.02F WCI   4
MILWAUKEE/TIMM MOSUNNY   19   3  49 NW15      30.03F WCI   5
RACINE         MOSUNNY   21   5  50 NW12G21   30.03F WCI   9
BURLINGTON     SUNNY     32  22  68 W13G20    30.03S WCI  22
KENOSHA        MOSUNNY   21   7  54 W16       30.02F WCI   7
FOND DU LAC    MOSUNNY   17   4  56 W10       30.01F WCI   5
SHEBOYGAN      CLOUDY    17   6  62 NW16      29.99F WCI   2
WEST BEND      PTSUNNY   18   5  57 W9        30.00F WCI   6
JUNEAU         SUNNY     16   4  59 W8        30.04S WCI   5
$$

LSZ147-162-122100-
LAKE SUPERIOR

STATION/POSITION TIME  TEMP    WIND        PRES    WAVE
                       AIR SEA DIR/SP/G            HT/PER
                 (UTC) (F)     (DEG/KT/KT) (MB)    (FT/S)
DEVILS ISLAND    1900   13     230/  4/  6 1018.5F
SAXON HARBOR     1940   13                 1016.6F
$$

LMZ867-665-643>646-122100-
LAKE MICHIGAN

STATION/POSITION TIME  TEMP    WIND        PRES    WAVE
                       AIR SEA DIR/SP/G            HT/PER
                 (UTC) (F)     (DEG/KT/KT) (MB)    (FT/S)
NORTHPORT PIER   1940   18     320/ 17/ 23 1014.2F
KEWAUNEE LAKESHO 1930   17     330/  8/ 14 1014.8F
SHEBOYGAN LAKESH 1900   17     300/ 15/ 18 1017.3F
PORT WASHINGTON  1940   19     300/  8/ 14 1017.6F
MILWAUKEE LAKESH 1930   18     310/ 13/ 17   N/A
KENOSHA   LAKESH 1900   20     290/ 12/ 15 1017.3
$$

TC  - TEMPERATURE IN CELSIUS
VSB - VISIBILITY IN STATUTE MILES
WCI - WIND CHILL INDEX
HX  - HEAT INDEX





USA.gov is the U.S. government's official web portal to all federal, state and local government web resources and services.